Change the Weather History Date:

Thursday, August 21, 2014

  Actual Average Record
Temperature  
Mean Temperature 63 °F -  
Max Temperature 69 °F 77 °F 104 °F (1955)
Min Temperature 57 °F 53 °F 37 °F (2004)
Degree Days  
Heating Degree Days 2    
Growing Degree Days 13 (Base 50)    
Moisture  
Dew Point 62 °F    
Average Humidity 90    
Maximum Humidity 100    
Minimum Humidity 83    
Precipitation  
Precipitation 0.03 in - - ()
Sea Level Pressure  
Sea Level Pressure 29.94 in    
Wind  
Wind Speed 2 mph (East)    
Max Wind Speed 12 mph    
Max Gust Speed -    
Visibility 7 miles    
Events Fog , Rain    
Averages and records for this station are not official NWS values.
T = Trace of Precipitation, MM = Missing Value Source: NWS Daily Summary

Daily Weather History Graph

Daily Weather History Graph

Search for Another Location

Airport or City:

Trip Planner

Search our weather history database for the weather conditions in past years. The results will help you decide how hot, cold, wet, or windy it might be!

Date:

Astronomy

Aug. 21, 2014 Rise Set
Actual Time 6:04 AM CDT 7:50 PM CDT
Civil Twilight 5:33 AM CDT 8:21 PM CDT
Nautical Twilight 4:55 AM CDT 8:59 PM CDT
Astronomical Twilight 4:14 AM CDT 9:40 PM CDT
Moon 2:30 AM CDT (8/21) 5:22 PM CDT (8/21)
Length of Visible Light 14h 48m
Length of Day
13h 46m
Waning Crescent, 13% of the Moon is Illuminated
Aug 21
Waning Crescent
Aug 25
New
Sep 2
First Quarter
Sep 8
Full
Sep 15
Last Quarter

Hourly Weather History & Observations

Time (CDT) Temp. Dew Point Humidity Pressure Visibility Wind Dir Wind Speed Gust Speed Precip Events Conditions
12:15 AM 59.0 °F 59.0 °F 100% 29.96 in 7.0 mi Calm Calm - N/A   Clear
12:35 AM 59.0 °F 59.0 °F 100% 29.96 in 7.0 mi Calm Calm - N/A   Scattered Clouds
12:55 AM 59.0 °F 57.2 °F 94% 29.96 in 10.0 mi Calm Calm - N/A   Scattered Clouds
1:15 AM 59.0 °F 57.2 °F 94% 29.96 in 1.8 mi Calm Calm - N/A   Mostly Cloudy
1:35 AM 59.0 °F 59.0 °F 100% 29.96 in 10.0 mi Calm Calm - N/A   Mostly Cloudy
1:55 AM 59.0 °F 59.0 °F 100% 29.96 in 10.0 mi Calm Calm - N/A   Scattered Clouds
2:15 AM 59.0 °F 57.2 °F 94% 29.96 in 0.8 mi Calm Calm - N/A   Mist
2:35 AM 59.0 °F 57.2 °F 94% 29.96 in 3.0 mi Calm Calm - N/A   Mostly Cloudy
2:55 AM 59.0 °F 57.2 °F 94% 29.95 in 1.2 mi Calm Calm - N/A   Mostly Cloudy
3:15 AM 59.0 °F 57.2 °F 94% 29.94 in 5.0 mi Calm Calm - N/A   Scattered Clouds
3:35 AM 59.0 °F 57.2 °F 94% 29.94 in 1.5 mi Calm Calm - N/A   Mostly Cloudy
3:55 AM 57.2 °F 55.4 °F 94% 29.94 in 1.2 mi Calm Calm - N/A   Overcast
4:20 AM 59.0 °F 59.0 °F 100% 29.94 in 1.5 mi Calm Calm - N/A   Overcast
4:35 AM 57.2 °F 55.4 °F 94% 29.94 in 0.2 mi Calm Calm - N/A Fog Fog
4:55 AM 57.2 °F 57.2 °F 100% 29.94 in 0.2 mi Calm Calm - N/A Fog Fog
5:15 AM 57.2 °F 57.2 °F 100% 29.94 in 0.2 mi Calm Calm - N/A Fog Fog
5:35 AM 57.2 °F 57.2 °F 100% 29.94 in 0.8 mi Calm Calm - N/A   Overcast
5:55 AM 57.2 °F 55.4 °F 94% 29.93 in 0.2 mi Calm Calm - N/A Fog Fog
6:15 AM 59.0 °F 57.2 °F 94% 29.94 in 5.0 mi Calm Calm - N/A   Scattered Clouds
6:35 AM 59.0 °F 59.0 °F 100% 29.94 in 5.0 mi Calm Calm - N/A   Scattered Clouds
6:55 AM 59.0 °F 59.0 °F 100% 29.95 in 3.0 mi Calm Calm - N/A   Scattered Clouds
7:15 AM 60.8 °F 59.0 °F 94% 29.95 in 3.0 mi Calm Calm - N/A   Scattered Clouds
7:35 AM 60.8 °F 60.8 °F 100% 29.96 in 3.0 mi Calm Calm - N/A   Clear
7:55 AM 62.6 °F 60.8 °F 94% 29.97 in 4.0 mi Calm Calm - N/A   Clear
8:15 AM 62.6 °F 62.6 °F 100% 29.96 in 5.0 mi East 3.5 mph - N/A   Scattered Clouds
8:55 AM 64.4 °F 62.6 °F 94% 29.96 in 7.0 mi East 5.8 mph - N/A   Overcast
9:15 AM 66.2 °F 62.6 °F 88% 29.95 in 7.0 mi East 5.8 mph - N/A   Overcast
9:35 AM 66.2 °F 62.6 °F 88% 29.95 in 10.0 mi East 3.5 mph - N/A   Overcast
9:55 AM 68.0 °F 62.6 °F 83% 29.94 in 10.0 mi ESE 4.6 mph - N/A   Overcast
10:15 AM 68.0 °F 62.6 °F 83% 29.94 in 10.0 mi ESE 6.9 mph - N/A   Overcast
10:35 AM 68.0 °F 62.6 °F 83% 29.96 in 10.0 mi ESE 4.6 mph - N/A   Overcast
10:55 AM 68.0 °F 62.6 °F 83% 29.97 in 10.0 mi SE 3.5 mph - N/A Rain Light Rain
11:15 AM 68.0 °F 62.6 °F 83% 29.96 in 10.0 mi Calm Calm - N/A Rain Light Rain
11:35 AM 66.2 °F 62.6 °F 88% 29.97 in 7.0 mi Calm Calm - 0.01 in Rain Rain
12:15 PM 68.0 °F 64.4 °F 88% 29.96 in 5.0 mi SE 3.5 mph - 0.01 in Rain Light Rain
12:35 PM 68.0 °F 64.4 °F 88% 29.95 in 7.0 mi ESE 5.8 mph - 0.02 in Rain Light Rain
12:55 PM 68.0 °F 64.4 °F 88% 29.93 in 7.0 mi ESE 9.2 mph - 0.02 in   Drizzle
1:15 PM 68.0 °F 64.4 °F 88% 29.93 in 7.0 mi ESE 6.9 mph - N/A   Light Drizzle
1:35 PM 68.0 °F 64.4 °F 88% 29.93 in 10.0 mi ESE 6.9 mph - N/A Rain Light Rain
1:55 PM 68.0 °F 66.2 °F 94% 29.92 in 10.0 mi ESE 8.1 mph - N/A   Overcast
2:15 PM 68.0 °F 64.4 °F 88% 29.91 in 10.0 mi ESE 11.5 mph - N/A   Overcast
2:35 PM 69.8 °F 64.4 °F 83% 29.92 in 10.0 mi ESE 10.4 mph - N/A   Overcast
2:55 PM 69.8 °F 64.4 °F 83% 29.93 in 10.0 mi SSE 8.1 mph - N/A   Overcast
3:15 PM 68.0 °F 64.4 °F 88% 29.93 in 10.0 mi ESE 4.6 mph - N/A   Overcast
3:35 PM 69.8 °F 64.4 °F 83% 29.93 in 10.0 mi ESE 8.1 mph - N/A   Overcast
3:55 PM 69.8 °F 64.4 °F 83% 29.93 in 10.0 mi ESE 6.9 mph - N/A   Overcast
4:15 PM 69.8 °F 64.4 °F 83% 29.92 in 10.0 mi East 5.8 mph - N/A   Overcast
4:35 PM 69.8 °F 64.4 °F 83% 29.93 in 10.0 mi East 5.8 mph - N/A   Overcast
4:55 PM 69.8 °F 64.4 °F 83% 29.93 in 10.0 mi East 4.6 mph - N/A   Overcast
5:15 PM 69.8 °F 64.4 °F 83% 29.94 in 10.0 mi ESE 5.8 mph - N/A   Overcast
5:35 PM 69.8 °F 64.4 °F 83% 29.94 in 10.0 mi East 5.8 mph - N/A   Overcast
5:55 PM 69.8 °F 64.4 °F 83% 29.93 in 10.0 mi East 4.6 mph - N/A   Overcast
6:15 PM 69.8 °F 64.4 °F 83% 29.92 in 10.0 mi East 4.6 mph - N/A   Overcast
6:35 PM 69.8 °F 64.4 °F 83% 29.93 in 10.0 mi East 4.6 mph - N/A   Overcast
6:55 PM 69.8 °F 64.4 °F 83% 29.92 in 10.0 mi East 4.6 mph - N/A   Overcast
7:15 PM 68.0 °F 64.4 °F 88% 29.93 in 10.0 mi Calm Calm - N/A   Overcast
7:35 PM 68.0 °F 64.4 °F 88% 29.93 in 10.0 mi East 4.6 mph - N/A   Overcast
7:55 PM 68.0 °F 64.4 °F 88% 29.93 in 10.0 mi ENE 3.5 mph - N/A   Overcast
8:15 PM 68.0 °F 64.4 °F 88% 29.94 in 10.0 mi ENE 3.5 mph - N/A   Overcast
8:35 PM 68.0 °F 64.4 °F 88% 29.95 in 10.0 mi ENE 3.5 mph - N/A   Overcast
8:55 PM 68.0 °F 64.4 °F 88% 29.94 in 10.0 mi East 4.6 mph - N/A   Overcast
9:15 PM 68.0 °F 64.4 °F 88% 29.94 in 10.0 mi East 3.5 mph - N/A   Overcast
9:35 PM 66.2 °F 62.6 °F 88% 29.94 in 10.0 mi East 4.6 mph - N/A   Overcast
9:55 PM 66.2 °F 62.6 °F 88% 29.94 in 10.0 mi ENE 3.5 mph - N/A   Overcast
10:15 PM 66.2 °F 62.6 °F 88% 29.94 in 10.0 mi East 4.6 mph - N/A   Overcast
10:35 PM 66.2 °F 64.4 °F 94% 29.94 in 7.0 mi East 3.5 mph - N/A   Overcast
11:15 PM 66.2 °F 64.4 °F 94% 29.94 in 5.0 mi East 3.5 mph - N/A   Overcast
11:35 PM 66.2 °F 64.4 °F 94% 29.95 in 5.0 mi ENE 3.5 mph - N/A   Overcast
11:55 PM 66.2 °F 64.4 °F 94% 29.94 in 4.0 mi SE 3.5 mph - N/A   Overcast